Location: Unspecified
(45.2670°N, 0.0000°E)
Time: 13:35:08
(UTC+00:00)

CZ-6A DEB - Visible Passes

Search period start: 04 April 2026 00:00
Search period end: 14 April 2026 00:00
Orbit: 761 x 822 km, 89.0° (Epoch: 28 March)

Date Brightness Start Highest point End Pass type
(mag) Time Alt. Az. Time Alt. Az. Time Alt. Az.
5 Apr ? 19:11:01 10° NW 19:14:03 16° WNW 19:17:07 10° WSW visible
6 Apr ? 04:50:26 10° SE 04:54:43 27° ENE 04:59:00 10° NNE visible
7 Apr ? 04:22:30 10° ESE 04:25:39 16° ENE 04:28:48 10° NE visible
10 Apr ? 04:33:44 10° SE 04:38:01 27° ENE 04:42:17 10° NNE visible
11 Apr ? 04:05:46 10° ESE 04:08:56 17° ENE 04:12:06 10° NE visible
13 Apr ? 04:45:32 10° SSE 04:50:25 45° E 04:55:17 10° NNE visible
